Wind_Speed
92 85 77 81 82 81 81 75 73 69 67 62 59 55 55 52 48 45 42 43 43 36 34 28 24 24 32 39 43 42 37 31 27 24 23 24 21 19 20 17 15 13 13 12 10
79 66 70 72 74 77 72 73 73 68 66 65 61 59 58 54 50 48 47 46 41 40 37 35 29 27 30 41 46 45 42 34 31 27 28 28 23 23 22 20 17 16 15 13 11
66 52 60 67 71 66 69 67 67 64 62 60 61 59 59 57 53 49 48 48 43 39 35 30 29 28 26 37 45 48 44 38 36 33 31 30 26 25 25 21 21 21 18 16 15
72 66 55 54 62 61 63 64 60 62 58 57 59 61 60 60 54 51 49 48 46 41 35 35 32 28 26 29 38 46 46 41 40 34 32 31 30 28 26 27 23 21 19 17 17
69 56 52 53 49 50 53 58 58 55 54 52 53 55 58 59 55 50 48 47 44 46 40 42 37 35 34 31 38 42 45 43 42 35 34 34 33 33 31 30 25 22 22 21 18
52 53 54 54 55 53 52 50 52 52 49 50 52 54 55 59 58 53 49 49 50 49 41 42 46 40 35 31 32 39 49 46 43 41 37 38 38 36 34 31 28 28 26 23 22
49 64 53 52 53 53 53 59 48 52 49 47 47 49 53 57 59 56 50 48 47 50 47 44 40 36 33 34 35 36 38 49 47 49 43 41 42 38 37 34 33 32 29 25 24
55 58 56 57 56 59 58 54 57 52 52 49 48 49 50 57 59 59 55 49 47 50 55 46 44 42 35 33 33 39 38 39 46 50 49 45 41 40 40 37 36 35 31 27 25
47 56 55 55 55 63 65 59 50 58 52 50 52 52 50 54 55 56 55 51 49 48 52 54 45 42 38 41 33 34 38 35 36 48 54 47 40 44 44 41 38 36 35 31 30
55 53 49 54 51 59 67 69 65 51 59 56 56 54 52 49 52 54 56 55 52 48 46 48 57 50 40 42 39 36 32 41 34 39 47 45 44 46 45 44 39 39 39 37 32
54 52 54 52 60 57 69 76 75 62 56 62 58 51 47 46 51 51 55 56 55 51 47 48 48 53 43 35 37 36 35 41 35 29 40 42 42 46 48 47 43 41 41 39 35
54 56 53 48 53 57 63 68 69 65 58 58 55 52 50 50 51 52 53 54 52 50 48 51 47 45 50 46 39 39 38 38 37 42 34 44 44 50 53 50 48 45 45 43 41
57 56 59 53 50 51 58 64 65 65 51 63 57 58 56 51 51 52 52 51 50 51 52 48 46 44 46 49 50 39 32 37 40 43 37 41 48 53 55 53 52 49 49 49 45
57 51 56 52 53 56 57 64 69 68 62 58 69 69 64 60 58 55 57 52 51 48 50 53 48 44 43 44 46 45 38 40 42 43 44 42 51 54 57 56 54 52 52 49 47
57 57 55 56 50 57 57 60 71 71 68 69 55 69 65 63 60 57 58 56 52 50 51 50 53 45 41 42 45 44 48 46 46 46 42 44 52 54 61 61 57 54 53 49 46
67 50 63 57 53 55 59 70 69 68 66 71 71 65 63 62 58 58 62 59 55 55 54 51 49 51 45 45 49 52 43 50 48 52 43 38 46 49 62 59 56 53 52 50 47
69 55 59 55 49 52 58 66 69 70 73 71 68 61 63 63 65 60 61 63 59 55 52 53 51 52 52 50 49 49 52 47 51 49 47 43 49 43 58 61 56 54 53 52 51
74 59 68 57 52 51 67 64 70 73 67 70 68 63 66 65 62 58 60 62 60 56 52 54 51 49 53 57 51 53 55 54 48 57 53 48 39 37 43 66 55 53 53 52 51
73 59 68 63 57 57 61 65 59 67 68 60 69 66 64 61 60 59 61 59 57 57 55 53 52 52 51 52 52 55 56 48 46 46 50 46 35 37 36 51 59 52 51 50 52
65 62 73 63 61 57 55 43 56 57 60 56 54 64 63 63 64 65 63 60 60 57 53 53 49 48 49 50 50 50 47 49 50 56 54 50 44 41 42 42 56 57 54 47 50
63 62 70 53 64 62 62 57 49 48 51 52 56 54 58 57 61 61 62 60 57 56 55 54 50 50 50 52 48 48 51 53 52 49 48 49 47 42 44 42 45 55 48 47 49
67 70 71 58 63 67 58 51 52 54 56 51 53 52 47 50 58 57 55 53 52 54 52 54 54 51 48 47 44 43 44 45 46 44 50 48 45 47 47 44 40 44 42 43 45
67 74 74 68 63 71 61 57 57 57 52 49 49 51 46 42 49 48 55 53 52 50 51 51 55 56 54 52 48 45 45 47 47 48 48 46 41 42 45 43 38 37 40 40 40
64 70 78 63 57 64 70 59 60 59 58 54 51 49 48 47 44 45 48 55 58 55 53 50 48 52 55 53 51 48 48 49 49 50 49 49 48 43 40 38 37 37 34 34 36
64 66 75 66 56 65 67 72 64 60 57 52 50 48 44 47 44 44 51 53 54 54 56 57 56 53 52 55 50 47 42 46 47 45 47 40 46 39 31 32 33 34 35 34 35
63 65 75 68 63 51 65 75 65 58 58 51 48 49 45 42 47 47 48 55 58 54 59 60 58 54 57 53 56 55 46 44 51 49 44 43 41 41 35 29 34 34 37 38 39
59 62 72 66 58 59 66 60 63 62 66 56 50 48 47 43 46 41 40 39 45 49 52 58 54 53 56 54 55 57 54 53 51 50 43 42 30 32 30 33 36 40 42 43 42
Wind_Direction
225 229 231 228 222 221 220 220 221 220 221 219 215 210 213 216 216 218 217 213 217 211 218 223 219 238 240 223 229 226 227 227 227 218 219 219 210 209 215 198 203 182 169 169 164
224 225 227 230 228 225 222 222 221 221 218 219 217 210 211 215 216 216 220 217 217 219 215 211 202 221 249 229 223 226 229 228 232 218 214 215 209 211 213 203 199 192 175 173 165
207 219 233 239 234 227 224 225 224 223 220 219 219 212 211 215 214 216 218 219 216 217 219 218 221 216 241 224 222 231 226 227 232 221 211 216 211 209 216 211 202 193 181 175 169
207 220 222 220 233 229 229 226 225 225 222 220 219 217 210 212 215 215 216 217 221 223 223 229 227 232 236 255 225 224 224 227 232 226 214 213 215 207 212 211 210 200 189 184 178
208 216 211 206 203 216 222 226 225 224 221 221 219 217 212 214 214 215 218 219 210 221 211 230 235 229 231 252 238 222 224 228 229 231 222 212 216 208 210 214 206 203 196 188 192
195 203 219 216 225 224 225 217 223 222 220 219 218 218 215 213 216 213 215 218 214 218 223 225 227 226 228 242 236 227 224 225 231 232 227 219 216 214 210 216 208 203 204 196 192
197 201 208 213 208 204 217 223 218 223 220 217 222 219 217 214 216 217 213 217 218 216 219 226 219 224 228 236 241 246 228 223 228 236 230 224 219 217 213 213 210 205 207 202 200
189 194 200 203 207 200 200 206 213 214 215 219 218 217 215 214 215 215 219 218 217 217 216 220 218 225 227 234 239 255 252 230 228 235 232 221 222 220 219 213 213 209 209 207 204
183 198 194 198 203 197 193 195 195 218 213 216 215 217 213 215 215 215 218 223 223 221 224 229 218 229 231 233 238 250 252 254 258 233 236 231 220 225 222 216 214 211 209 209 210
190 195 193 197 197 196 195 192 184 199 212 211 208 208 212 216 220 220 219 224 226 227 226 228 226 230 227 232 239 248 247 254 256 236 234 232 239 223 226 222 215 214 213 211 210
185 196 197 194 205 205 197 196 194 204 186 206 224 224 218 212 218 217 217 222 229 229 229 232 230 230 234 238 240 238 245 253 245 256 239 232 224 221 226 224 221 218 217 216 213
176 191 190 193 195 202 200 199 193 202 208 208 211 216 214 213 211 213 216 219 222 230 234 232 231 232 233 235 235 239 241 253 256 274 258 238 228 220 226 224 220 218 218 217 218
173 178 184 192 197 202 206 197 199 196 193 199 204 204 206 204 209 211 215 221 221 228 234 240 233 236 237 237 237 245 242 250 253 258 253 239 235 217 224 225 223 220 219 218 219
176 177 181 188 198 203 203 201 202 200 201 202 206 201 205 204 207 207 209 215 216 223 228 233 237 234 237 240 238 244 245 243 253 251 253 253 237 218 221 224 226 223 223 221 221
177 179 190 189 194 202 205 203 203 204 208 207 208 203 204 208 207 208 210 209 212 218 226 235 234 238 239 241 236 239 241 240 251 238 239 252 247 221 217 222 224 223 224 224 225
177 183 185 187 191 197 202 204 204 206 214 210 205 206 205 207 207 208 211 210 213 217 217 219 223 229 232 235 238 241 251 238 245 239 239 249 253 238 221 224 227 226 225 226 229
180 176 181 178 189 196 201 202 203 208 212 207 206 206 208 208 208 211 210 211 213 214 215 220 225 227 230 237 240 241 242 248 242 241 253 246 244 248 226 226 227 228 227 226 228
181 178 175 187 189 203 202 205 208 209 213 212 208 212 209 209 212 216 213 212 215 216 217 222 222 228 233 235 243 247 247 253 255 256 245 243 242 255 242 226 229 234 233 233 233
182 187 176 189 188 198 199 203 207 209 211 217 212 214 213 215 216 215 215 215 219 220 218 216 221 226 233 234 234 238 244 249 248 249 245 243 246 253 252 240 234 236 237 239 240
202 190 175 180 192 200 209 209 210 212 215 216 219 215 216 218 215 214 217 214 219 222 226 224 230 231 231 231 233 240 241 245 251 258 256 250 249 253 255 253 243 240 240 243 243
197 200 180 179 196 206 207 208 207 212 215 219 222 220 224 224 224 222 221 218 224 228 229 228 229 230 235 236 237 242 249 251 251 253 251 255 252 253 261 262 248 243 244 243 242
198 197 196 186 194 207 203 206 210 212 213 217 217 219 223 227 228 229 229 227 229 237 240 239 238 236 237 237 236 237 236 243 247 255 254 257 257 263 263 265 252 244 247 244 242
200 198 201 192 195 202 202 209 210 211 212 212 214 216 216 215 222 230 229 227 234 235 237 242 245 245 241 237 233 232 234 239 239 239 244 249 246 248 256 260 254 242 242 242 240
199 200 201 193 194 203 209 207 210 215 220 222 218 218 219 220 221 223 223 229 233 236 240 243 240 243 246 246 244 238 232 233 235 239 244 245 251 254 251 257 260 249 239 238 240
201 201 199 201 195 209 211 214 213 212 217 214 217 219 222 222 222 224 224 223 227 230 236 239 240 240 238 238 235 234 239 241 241 240 247 248 253 260 255 252 241 240 240 237 236
204 202 204 200 195 204 215 208 213 216 215 215 216 217 217 220 221 224 227 226 225 225 229 237 241 240 242 240 233 229 230 235 237 239 242 243 243 250 246 245 236 236 238 234 234
207 206 209 199 205 210 215 216 216 221 217 222 225 227 218 223 221 226 230 228 230 229 229 235 233 237 239 241 238 233 232 234 239 242 240 241 249 257 255 245 237 241 242 239 237
Height
5599 5611 5622 5634 5645 5657 5668 5680 5690 5702 5713 5722 5733 5741 5750 5758 5764 5771 5777 5783 5789 5792 5796 5797 5802 5808 5811 5816 5818 5822 5827 5832 5835 5842 5847 5850 5852 5854 5856 5855 5858 5858 5858 5860 5861
5592 5603 5613 5624 5638 5649 5660 5670 5681 5692 5703 5713 5724 5734 5742 5749 5758 5765 5771 5776 5782 5786 5792 5795 5796 5801 5806 5809 5814 5818 5824 5831 5833 5838 5842 5845 5848 5851 5855 5855 5857 5858 5857 5860 5861
5581 5591 5602 5614 5627 5640 5653 5662 5673 5682 5694 5704 5714 5725 5734 5742 5751 5760 5765 5771 5776 5780 5786 5787 5791 5796 5800 5806 5809 5813 5821 5825 5827 5833 5836 5841 5845 5848 5852 5856 5855 5856 5858 5859 5861
5569 5582 5596 5604 5616 5631 5644 5655 5666 5675 5687 5697 5707 5717 5727 5734 5744 5750 5757 5764 5771 5776 5780 5783 5788 5791 5794 5800 5803 5809 5815 5820 5823 5828 5834 5838 5841 5846 5850 5852 5854 5855 5858 5860 5861
5561 5576 5587 5595 5606 5620 5634 5647 5659 5669 5681 5688 5699 5708 5719 5729 5734 5744 5751 5758 5765 5769 5776 5778 5782 5786 5789 5794 5797 5805 5811 5817 5819 5824 5831 5833 5838 5840 5845 5849 5852 5854 5856 5859 5861
5549 5565 5577 5587 5599 5610 5624 5638 5651 5662 5673 5682 5692 5701 5712 5721 5727 5736 5744 5752 5759 5764 5769 5775 5776 5779 5786 5788 5793 5801 5806 5811 5816 5819 5826 5829 5833 5836 5841 5846 5849 5851 5853 5856 5859
5545 5558 5570 5579 5591 5601 5615 5629 5645 5653 5664 5674 5683 5693 5704 5712 5720 5730 5736 5743 5749 5757 5764 5768 5770 5775 5779 5782 5788 5795 5801 5803 5810 5813 5819 5825 5828 5834 5836 5841 5846 5847 5851 5853 5856
5538 5549 5562 5572 5582 5593 5606 5621 5637 5646 5656 5665 5674 5684 5695 5700 5712 5724 5730 5736 5741 5748 5755 5760 5765 5770 5772 5778 5781 5787 5795 5798 5804 5805 5810 5817 5826 5831 5833 5836 5841 5844 5847 5850 5854
5529 5544 5553 5563 5574 5586 5600 5615 5633 5635 5645 5655 5663 5673 5684 5692 5704 5715 5723 5729 5735 5742 5749 5752 5761 5765 5769 5773 5778 5778 5791 5795 5795 5798 5804 5811 5821 5825 5828 5832 5836 5840 5844 5846 5849
5527 5539 5546 5556 5568 5580 5593 5607 5621 5624 5631 5641 5652 5661 5675 5691 5698 5708 5715 5722 5730 5737 5743 5747 5752 5757 5762 5767 5772 5776 5781 5786 5792 5795 5796 5803 5812 5818 5825 5828 5832 5835 5838 5842 5845
5520 5530 5543 5551 5563 5572 5582 5589 5600 5610 5621 5629 5648 5659 5671 5681 5687 5698 5705 5712 5721 5730 5737 5741 5747 5755 5760 5763 5768 5772 5776 5780 5786 5788 5790 5795 5802 5812 5816 5822 5826 5831 5835 5839 5842
5513 5526 5535 5546 5556 5566 5574 5585 5602 5611 5620 5626 5639 5650 5662 5671 5678 5685 5694 5705 5714 5723 5729 5734 5741 5749 5751 5756 5761 5766 5770 5774 5777 5779 5782 5786 5792 5802 5806 5814 5818 5823 5827 5833 5834
5506 5520 5528 5539 5550 5559 5570 5584 5593 5606 5612 5619 5627 5640 5651 5662 5671 5678 5687 5697 5707 5714 5723 5730 5738 5740 5744 5750 5756 5761 5763 5766 5769 5771 5773 5776 5781 5791 5797 5805 5810 5815 5820 5824 5829
5500 5511 5521 5531 5544 5553 5563 5576 5589 5597 5604 5611 5620 5629 5639 5648 5658 5669 5677 5688 5697 5706 5710 5719 5728 5733 5740 5745 5752 5755 5757 5757 5761 5762 5767 5768 5772 5781 5789 5797 5803 5808 5812 5819 5824
5492 5503 5515 5524 5536 5547 5561 5568 5581 5588 5590 5601 5611 5619 5628 5639 5652 5660 5667 5677 5688 5697 5701 5714 5722 5730 5736 5740 5742 5747 5745 5749 5753 5755 5755 5762 5765 5776 5777 5786 5793 5800 5806 5814 5820
5484 5498 5508 5518 5531 5543 5552 5563 5571 5575 5573 5587 5600 5613 5623 5633 5643 5650 5660 5670 5677 5681 5692 5701 5708 5719 5726 5728 5732 5739 5741 5741 5743 5748 5751 5758 5759 5766 5772 5779 5788 5795 5801 5808 5813
5475 5492 5503 5510 5526 5535 5543 5550 5556 5560 5572 5588 5599 5610 5620 5627 5635 5643 5653 5660 5668 5679 5688 5693 5703 5711 5715 5720 5724 5730 5732 5733 5737 5742 5752 5750 5748 5760 5769 5771 5778 5786 5792 5798 5802
5471 5485 5498 5508 5520 5526 5531 5542 5549 5564 5574 5584 5596 5603 5608 5616 5625 5636 5640 5651 5664 5673 5681 5687 5695 5701 5706 5715 5720 5721 5723 5729 5732 5736 5744 5741 5746 5750 5759 5762 5771 5778 5785 5790 5797
5463 5478 5489 5501 5512 5519 5526 5533 5546 5559 5568 5576 5585 5592 5601 5611 5622 5625 5637 5652 5657 5667 5674 5677 5684 5691 5698 5702 5706 5709 5714 5726 5723 5728 5733 5737 5744 5746 5752 5759 5766 5771 5775 5783 5789
5455 5471 5484 5495 5506 5512 5519 5532 5541 5551 5562 5570 5579 5588 5595 5606 5613 5620 5631 5644 5651 5661 5665 5673 5676 5683 5687 5688 5693 5701 5709 5710 5715 5722 5728 5733 5736 5740 5742 5750 5756 5762 5767 5774 5779
5450 5461 5476 5490 5498 5501 5510 5526 5537 5547 5555 5564 5575 5585 5594 5603 5612 5618 5629 5635 5643 5650 5656 5661 5669 5672 5677 5683 5688 5691 5695 5701 5706 5711 5718 5723 5727 5732 5734 5740 5744 5750 5756 5761 5766
5442 5455 5467 5482 5486 5493 5509 5519 5530 5540 5551 5560 5569 5580 5591 5600 5606 5614 5624 5634 5639 5644 5650 5656 5657 5662 5671 5675 5678 5682 5689 5693 5696 5707 5707 5712 5720 5722 5727 5733 5736 5739 5744 5748 5753
5437 5449 5459 5471 5476 5487 5503 5512 5523 5534 5544 5554 5564 5575 5584 5590 5599 5608 5617 5626 5630 5636 5642 5648 5649 5655 5660 5666 5671 5674 5680 5686 5689 5692 5697 5701 5714 5716 5719 5722 5727 5730 5733 5737 5742
5432 5440 5448 5460 5471 5485 5495 5506 5517 5528 5538 5550 5559 5566 5574 5580 5589 5598 5606 5614 5621 5627 5632 5635 5639 5645 5652 5664 5668 5670 5673 5676 5678 5680 5690 5694 5702 5706 5713 5716 5716 5718 5723 5727 5731
5424 5432 5439 5450 5463 5480 5490 5502 5508 5520 5529 5539 5548 5559 5569 5574 5580 5588 5596 5602 5608 5615 5620 5623 5628 5637 5645 5648 5654 5662 5666 5670 5670 5678 5677 5700 5690 5699 5703 5703 5704 5707 5713 5718 5720
5416 5424 5432 5445 5460 5472 5481 5490 5505 5516 5524 5535 5545 5552 5558 5565 5577 5585 5589 5592 5597 5602 5608 5613 5622 5630 5635 5638 5641 5646 5653 5658 5663 5670 5675 5680 5688 5689 5689 5692 5695 5699 5702 5706 5709
5410 5418 5427 5440 5454 5462 5471 5484 5501 5511 5520 5530 5539 5547 5555 5564 5570 5576 5580 5586 5593 5597 5602 5607 5613 5620 5626 5628 5630 5631 5644 5650 5657 5662 5670 5670 5684 5679 5680 5682 5686 5687 5689 5695 5701